Вернуться в каталог

SL-14 DEB

АктивенPO
NORAD 45339·DEBRIS·🇷🇺 Russia

Запущен Aug 15, 1991 с Plesetsk Cosmodrome

Loading…

Ближайшие Пролёты (ближайшие 24 часа)

TLE

СвежийSource: Space-Track

Эпоха: Sep 13, 2026, 03:24 UTC

1 45339U 91056CD  26256.14176874  .00005155  00000-0  48560-2 0  9995
2 45339  82.5030 306.8238 0104081 138.4140 222.4993 13.78760228323226

Отслеживайте SL-14 DEB в реальном времени с AllMySat

Download on the App Store